[[{"header":{"parameterUnit":"m.s-1","parameterCategory":1,"la1":30.2991,"la2":30.254,"lo1":-89.0895,"lo2":-89.0444,"dy":0.0017,"dx":0.0017,"nx":28,"ny":28,"refTime":"2023-10-22T09:00:00:Z","depth":0,"parameterNumber":2,"parameterNumberName":"U-component_of_WINDS"},"data":[0,0,0,0,0,0,0,0,0,0,0,0,0,0,0,0,0,0,0,0,0,0,0,0,0,0,0,0,0,0,0,0,0,0,0,0,0,0,0,0,0,0,0,0,0,0,0,0,0,0,0,0,0,0,0,0,0,0,-0.9545,-0.9545,0,-0.9564,-0.9564,-0.9564,-0.9541,-0.954,-0.954,-0.9539,-0.9558,-0.9559,-0.956,0,0,0,0,0,0,0,0,0,0,0,0,0,-0.9491,-0.9492,-0.9545,-0.9545,-0.9546,-0.9564,-0.9564,-0.9564,-0.9541,-0.954,-0.9539,-0.9538,-0.9558,-0.9559,-0.9561,0,0,0,0,0,0,0,0,0,0,0,0,0,-0.9513,-0.9493,-0.9545,-0.9537,-0.9536,-0.9564,-0.9564,-0.9564,-0.9542,-0.954,-0.9539,-0.9538,-0.9557,-0.9559,-0.9561,-0.9598,0,0,-0.9567,-0.9568,0,0,0,0,0,0,0,0,-0.9512,-0.9515,-0.9538,-0.9537,-0.9537,-0.9549,-0.9552,-0.9575,-0.9542,-0.954,-0.9539,-0.9537,-0.9556,-0.9558,-0.9564,-0.9599,-0.9599,-0.9567,-0.9568,-0.9569,-0.9569,0,0,0,0,0,0,0,-0.951,-0.9514,-0.9552,-0.9538,-0.9537,-0.9532,-0.9534,-0.9556,-0.9555,-0.954,-0.9538,-0.9541,-0.9555,-0.9562,-0.9564,-0.96,-0.9567,-0.9569,-0.957,-0.957,-0.9667,-0.9668,0,0,0,0,0,0,-0.951,-0.9513,-0.9552,-0.9553,-0.9521,-0.9534,-0.9536,-0.9546,-0.9554,-0.9554,-0.9542,-0.9539,-0.956,-0.9562,-0.9565,-0.961,-0.9569,-0.9571,-0.9572,-0.9666,-0.9667,-0.9669,0,0,0,0,0,0,-0.9509,-0.9513,-0.9551,-0.9533,-0.9537,-0.9536,-0.9548,-0.9547,-0.9554,-0.9556,-0.9555,-0.9549,-0.9559,-0.9562,-0.959,-0.961,-0.9572,-0.9573,-0.9664,-0.9666,-0.9668,-0.9699,0,0,0,0,0,0,-0.9507,-0.9513,-0.9527,-0.9533,-0.9538,-0.9576,-0.9549,-0.9549,-0.9557,-0.9555,-0.9562,-0.9562,-0.9558,-0.9587,-0.9592,-0.9612,-0.9575,-0.9662,-0.9665,-0.9667,-0.9696,-0.9702,-0.9707,0,0,0,0,0,-0.9505,-0.9535,-0.9528,-0.9532,-0.9555,-0.9577,-0.958,-0.9574,-0.9559,-0.9573,-0.9574,-0.9562,-0.9607,-0.959,-0.9595,-0.9616,-0.9661,-0.9664,-0.9667,-0.9694,-0.9701,-0.9707,0,0,0,0,0,0,-0.953,-0.9535,-0.9528,-0.956,-0.9568,-0.9573,-0.9591,-0.9581,-0.9594,-0.9591,-0.9584,-0.9585,-0.9615,-0.9618,-0.96,-0.9653,-0.9632,-0.9636,-0.965,-0.9657,-0.9662,-0.9661,-0.9576,0,0,0,0,0,-0.954,-0.9557,-0.956,-0.9588,-0.9593,-0.9591,-0.96,-0.9595,-0.9604,-0.9607,-0.961,-0.9619,-0.9635,-0.9646,-0.9661,-0.9697,-0.9699,-0.9714,-0.9719,-0.9723,-0.9727,-0.9748,-0.9755,-0.9679,-0.9679,-0.9679,0,0,-0.9559,-0.9564,-0.9575,-0.9594,-0.9599,-0.9618,-0.9594,-0.9614,-0.9628,-0.961,-0.9637,-0.964,-0.9649,-0.9681,-0.9696,-0.9685,-0.9749,-0.9727,-0.9731,-0.9732,-0.9752,-0.9759,-0.9765,-0.9681,-0.9681,-0.9681,0,0,-0.9604,-0.9609,-0.9634,-0.964,-0.965,-0.9649,-0.9655,-0.9661,-0.9663,-0.9689,-0.9677,-0.9693,-0.972,-0.9728,-0.9736,-0.9785,-0.9774,-0.979,-0.9818,-0.9838,-0.9844,-0.9849,-0.9867,-0.9874,-0.9794,-0.9794,-0.9794,0,-0.9627,-0.9654,-0.9648,-0.9669,-0.9678,-0.9663,-0.9688,-0.9695,-0.9709,-0.9715,-0.9703,-0.9738,-0.9743,-0.9778,-0.979,-0.9796,-0.9803,-0.9789,-0.9843,-0.9848,-0.9853,-0.9871,-0.9878,-0.9796,-0.9795,-0.9795,-0.9795,0,-0.9683,-0.9702,-0.9721,-0.9735,-0.9746,-0.9769,-0.9766,-0.9778,-0.9772,-0.9773,-0.9801,-0.9806,-0.9823,-0.983,-0.9824,-0.9864,-0.9858,-0.9844,-0.9822,-0.9862,-0.9879,-0.9886,-0.9798,-0.9798,-0.9797,-0.9797,0,0,-0.9744,-0.9755,-0.9762,-0.9769,-0.9779,-0.9793,-0.9816,-0.9832,-0.9843,-0.9853,-0.9873,-0.9897,-0.9886,-0.9894,-0.9889,-0.9907,-0.9947,-0.9891,-0.9892,-0.9902,-0.9992,-1.0003,-1.0011,-0.994,-0.9941,-0.9942,-0.9992,0,-0.979,-0.983,-0.9825,-0.9863,-0.9881,-0.9868,-0.9888,-0.9896,-0.9897,-0.9913,-0.9914,-0.9932,-0.9914,-0.992,-0.9936,-0.9938,-0.9965,-0.9934,-0.9959,-0.996,-0.9958,-1.0019,-1.003,-1.0077,-0.9998,-0.9999,-1.0,0,-0.9849,-0.9862,-0.9902,-0.991,-0.9918,-0.9936,-0.9951,-0.9966,-0.9976,-0.9975,-0.9985,-0.9978,-1.0001,-0.9979,-1.0012,-0.9991,-1.0001,-1.0004,-1.0005,-1.0008,-0.9983,-1.0024,-1.0091,-1.0099,-1.001,-1.0009,-1.0008,0,-0.9891,-0.9919,-0.9947,-0.9953,-0.9962,-0.9976,-0.9981,-0.9989,-0.9999,-1.0012,-1.0019,-1.0035,-1.0044,-1.0056,-1.0053,-1.0037,-1.0088,-1.0064,-1.0089,-1.0089,-1.01,-1.01,-1.0171,-1.0105,-1.0105,-1.0105,-1.0105,0,-0.9944,-0.9969,-0.9966,-0.9983,-1.0012,-1.0006,-1.0034,-1.0037,-1.0045,-1.0063,-1.0052,-1.0069,-1.0063,-1.0081,-1.0078,-1.0107,-1.011,-1.0111,-1.0111,-1.0113,-1.0113,-1.012,-1.0117,-1.0107,-1.0106,-1.0106,-1.0106,0,-0.9996,-0.9995,-1.0024,-1.0031,-1.0034,-1.0055,-1.0061,-1.0077,-1.0078,-1.0101,-1.0106,-1.0106,-1.0126,-1.0124,-1.0146,-1.0145,-1.018,-1.0175,-1.0177,-1.0176,-1.0201,-1.0199,-1.028,-1.0291,-1.0217,-1.0218,-1.0218,0,-1.003,-1.0049,-1.0059,-1.007,-1.0076,-1.0094,-1.0105,-1.01,-1.0112,-1.0125,-1.014,-1.0159,-1.0174,-1.0206,-1.0208,-1.0226,-1.0221,-1.0248,-1.0224,-1.0226,-1.0223,-1.0222,-1.0225,-1.0254,-1.0254,-1.0255,-1.0256,0,-1.0091,-1.0089,-1.0105,-1.0122,-1.0135,-1.0147,-1.0158,-1.0168,-1.0165,-1.0179,-1.0199,-1.021,-1.0233,-1.0252,-1.0269,-1.0274,-1.0265,-1.0263,-1.027,-1.0273,-1.0274,-1.0275,-1.0192,-1.0262,-1.0261,-1.0261,-1.026,-1.026,-1.0136,-1.0153,-1.0162,-1.0181,-1.0189,-1.02,-1.0216,-1.0219,-1.0236,-1.0254,-1.025,-1.0273,-1.0283,-1.0304,-1.0311,-1.0329,-1.0319,-1.0329,-1.0331,-1.0334,-1.0338,-1.027,-1.0332,-1.0332,-1.0332,-1.0331,-1.0331,0,-1.0197,-1.0203,-1.022,-1.0236,-1.0251,-1.0241,-1.0253,-1.0266,-1.0287,-1.0297,-1.0312,-1.0335,-1.0354,-1.0358,-1.0376,-1.039,-1.0387,-1.0395,-1.0395,-1.0396,-1.0345,-1.0338,-1.0398,-1.0398,-1.0398,-1.0398,-1.0398,-1.0398,-1.0231,-1.026,-1.026,-1.0292,-1.0298,-1.032,-1.0328,-1.0339,-1.0347,-1.0374,-1.039,-1.0392,-1.04,-1.0419,-1.0436,-1.0437,-1.0445,-1.0455,-1.0455,-1.0406,-1.04,-1.0393,-1.0387,-1.0457,-1.0457,-1.0505,-1.0505,-1.0506]},{"header":{"parameterUnit":"m.s-1","parameterCategory":1,"la1":30.2991,"la2":30.254,"lo1":-89.0895,"lo2":-89.0444,"dy":0.0017,"dx":0.0017,"nx":28,"ny":28,"refTime":"2023-10-22T09:00:00:Z","depth":0,"parameterNumber":3,"parameterNumberName":"V-component_of_WINDS"},"data":[0,0,0,0,0,0,0,0,0,0,0,0,0,0,0,0,0,0,0,0,0,0,0,0,0,0,0,0,0,0,0,0,0,0,0,0,0,0,0,0,0,0,0,0,0,0,0,0,0,0,0,0,0,0,0,0,0,0,-0.5441,-0.5441,0,-0.5463,-0.5463,-0.5463,-0.5463,-0.5462,-0.5462,-0.5462,-0.5482,-0.5483,-0.5484,0,0,0,0,0,0,0,0,0,0,0,0,0,-0.5396,-0.5397,-0.5441,-0.5441,-0.5441,-0.5463,-0.5463,-0.5464,-0.5463,-0.5462,-0.5462,-0.5462,-0.5482,-0.5483,-0.5484,0,0,0,0,0,0,0,0,0,0,0,0,0,-0.5416,-0.5397,-0.5441,-0.5444,-0.5444,-0.5463,-0.5463,-0.5464,-0.5463,-0.5462,-0.5462,-0.5461,-0.5482,-0.5483,-0.5484,-0.5501,0,0,-0.5488,-0.5489,0,0,0,0,0,0,0,0,-0.5415,-0.5418,-0.5443,-0.5443,-0.5444,-0.546,-0.5455,-0.5476,-0.5463,-0.5456,-0.5462,-0.5461,-0.5475,-0.5477,-0.5482,-0.5502,-0.5503,-0.5488,-0.5489,-0.549,-0.549,0,0,0,0,0,0,0,-0.5414,-0.5417,-0.545,-0.5443,-0.5444,-0.5443,-0.5446,-0.5459,-0.5468,-0.5456,-0.5456,-0.5459,-0.5475,-0.5481,-0.5482,-0.5503,-0.5488,-0.5489,-0.549,-0.5491,-0.5538,-0.5538,0,0,0,0,0,0,-0.5412,-0.5416,-0.5449,-0.545,-0.5428,-0.5444,-0.5447,-0.5455,-0.5467,-0.5469,-0.5459,-0.5459,-0.5479,-0.5481,-0.5483,-0.5504,-0.549,-0.5491,-0.5491,-0.5538,-0.5538,-0.5539,0,0,0,0,0,0,-0.5411,-0.5415,-0.5448,-0.5433,-0.5437,-0.5446,-0.5455,-0.5456,-0.5461,-0.547,-0.5471,-0.5463,-0.5479,-0.5481,-0.5497,-0.5504,-0.5491,-0.5492,-0.5537,-0.5538,-0.5538,-0.5544,0,0,0,0,0,0,-0.541,-0.5415,-0.5422,-0.5433,-0.5438,-0.5462,-0.5455,-0.5456,-0.5464,-0.5463,-0.5474,-0.5475,-0.5478,-0.5495,-0.5498,-0.5506,-0.5493,-0.5536,-0.5537,-0.5538,-0.5544,-0.5545,-0.5547,0,0,0,0,0,-0.5408,-0.5422,-0.5422,-0.5426,-0.5447,-0.5462,-0.5465,-0.5469,-0.5464,-0.5471,-0.5476,-0.5475,-0.5503,-0.5496,-0.55,-0.5508,-0.5536,-0.5537,-0.5538,-0.5543,-0.5545,-0.5547,0,0,0,0,0,0,-0.5411,-0.5424,-0.5424,-0.5442,-0.5451,-0.5462,-0.5471,-0.5471,-0.5481,-0.548,-0.5484,-0.5486,-0.5501,-0.5506,-0.5499,-0.5525,-0.5519,-0.5521,-0.5521,-0.5523,-0.5525,-0.5523,-0.5494,0,0,0,0,0,-0.5413,-0.5425,-0.5436,-0.5451,-0.5455,-0.5462,-0.5469,-0.5471,-0.5481,-0.5484,-0.5491,-0.5499,-0.551,-0.5517,-0.5527,-0.5544,-0.5546,-0.5552,-0.5553,-0.5554,-0.5556,-0.5565,-0.5567,-0.5542,-0.5542,-0.5542,0,0,-0.5419,-0.5428,-0.5435,-0.5451,-0.5459,-0.547,-0.5466,-0.5478,-0.5486,-0.5486,-0.5501,-0.5506,-0.5516,-0.5532,-0.5539,-0.5537,-0.5563,-0.5556,-0.5557,-0.5558,-0.5566,-0.5569,-0.5571,-0.5543,-0.5543,-0.5543,0,0,-0.5435,-0.5443,-0.5456,-0.5464,-0.5475,-0.548,-0.5483,-0.5494,-0.5497,-0.5513,-0.5512,-0.5522,-0.554,-0.5547,-0.5553,-0.5572,-0.5571,-0.5575,-0.5583,-0.5592,-0.5594,-0.5596,-0.5602,-0.5604,-0.5576,-0.5576,-0.5576,0,-0.544,-0.5458,-0.5463,-0.5476,-0.5483,-0.5483,-0.5496,-0.5503,-0.5517,-0.5522,-0.5518,-0.5541,-0.5548,-0.5566,-0.557,-0.5575,-0.5578,-0.5574,-0.5593,-0.5595,-0.5597,-0.5603,-0.5605,-0.5577,-0.5577,-0.5577,-0.5577,0,-0.5464,-0.5477,-0.5486,-0.55,-0.5508,-0.5521,-0.5527,-0.5534,-0.5536,-0.554,-0.5555,-0.5563,-0.5575,-0.558,-0.5581,-0.5597,-0.5595,-0.5593,-0.5586,-0.5599,-0.5605,-0.5607,-0.5577,-0.5577,-0.5577,-0.5577,0,0,-0.5482,-0.5499,-0.5502,-0.5508,-0.5521,-0.553,-0.5543,-0.5555,-0.5561,-0.557,-0.5581,-0.5596,-0.5594,-0.5601,-0.5603,-0.561,-0.5624,-0.5607,-0.5607,-0.5609,-0.5642,-0.5644,-0.5647,-0.5623,-0.5624,-0.5624,-0.5641,0,-0.5499,-0.5522,-0.5527,-0.5546,-0.5558,-0.5558,-0.5569,-0.5578,-0.5582,-0.5592,-0.5597,-0.5608,-0.5604,-0.5608,-0.5616,-0.5621,-0.5631,-0.562,-0.5632,-0.5633,-0.563,-0.565,-0.5651,-0.5667,-0.5644,-0.5644,-0.5644,0,-0.5522,-0.5533,-0.5554,-0.5565,-0.557,-0.558,-0.5591,-0.5601,-0.561,-0.5613,-0.562,-0.5621,-0.5634,-0.5627,-0.5644,-0.5636,-0.5642,-0.5645,-0.5645,-0.5647,-0.5639,-0.5651,-0.5672,-0.5674,-0.5648,-0.5647,-0.5647,0,-0.5533,-0.5553,-0.5568,-0.5573,-0.5586,-0.5593,-0.5599,-0.5608,-0.5615,-0.5624,-0.5629,-0.5639,-0.5645,-0.5653,-0.5657,-0.5652,-0.5673,-0.5667,-0.5675,-0.5675,-0.5679,-0.5679,-0.5702,-0.5683,-0.5683,-0.5683,-0.5683,0,-0.5552,-0.5564,-0.5573,-0.5582,-0.5596,-0.5601,-0.5614,-0.562,-0.5628,-0.5637,-0.5638,-0.5647,-0.5652,-0.5661,-0.5664,-0.5677,-0.568,-0.5682,-0.5683,-0.5682,-0.5682,-0.5685,-0.5684,-0.5684,-0.5684,-0.5684,-0.5684,0,-0.5566,-0.5572,-0.5588,-0.56,-0.5603,-0.5613,-0.5622,-0.563,-0.5635,-0.5647,-0.565,-0.5657,-0.5669,-0.5673,-0.5687,-0.5689,-0.5704,-0.5704,-0.5701,-0.5701,-0.5709,-0.5708,-0.5734,-0.5738,-0.5718,-0.5718,-0.5718,0,-0.5577,-0.5587,-0.5599,-0.5606,-0.5612,-0.5624,-0.5631,-0.5635,-0.5643,-0.5654,-0.5661,-0.5673,-0.5682,-0.57,-0.5706,-0.5716,-0.5716,-0.5724,-0.5717,-0.5716,-0.5715,-0.5715,-0.5715,-0.5725,-0.5726,-0.5726,-0.5726,0,-0.5596,-0.5599,-0.561,-0.5622,-0.563,-0.564,-0.5649,-0.5654,-0.566,-0.5668,-0.568,-0.5687,-0.5701,-0.5712,-0.5723,-0.5728,-0.5728,-0.5728,-0.5731,-0.573,-0.5727,-0.5728,-0.5704,-0.5727,-0.5727,-0.5727,-0.5727,-0.5727,-0.5609,-0.5618,-0.5628,-0.564,-0.5647,-0.5656,-0.5665,-0.567,-0.5681,-0.5693,-0.5695,-0.5707,-0.5716,-0.573,-0.5736,-0.5745,-0.5743,-0.5746,-0.5747,-0.5748,-0.5748,-0.5726,-0.5747,-0.5747,-0.5747,-0.5747,-0.5747,0,-0.5628,-0.5635,-0.5646,-0.5659,-0.5668,-0.5668,-0.5678,-0.5685,-0.5696,-0.5705,-0.5714,-0.5727,-0.5738,-0.5745,-0.5755,-0.5761,-0.5762,-0.5764,-0.5763,-0.5764,-0.575,-0.5747,-0.5764,-0.5764,-0.5764,-0.5764,-0.5764,-0.5764,-0.5639,-0.5654,-0.5658,-0.5676,-0.5682,-0.5695,-0.5701,-0.5708,-0.5715,-0.573,-0.5739,-0.5744,-0.5751,-0.5762,-0.5772,-0.5774,-0.5777,-0.578,-0.5781,-0.5767,-0.5766,-0.5764,-0.5761,-0.5781,-0.5781,-0.5795,-0.5795,-0.5795]}]]